TimeMDT,TemperatureF,Dew PointF,Humidity,Sea Level PressureIn,VisibilityMPH,Wind Direction,Wind SpeedMPH,Gust SpeedMPH,PrecipitationIn,Events,Conditions,WindDirDegrees,DateUTC
12:52 AM,61.0,55.9,83,29.86,10.0,Calm,Calm,-,N/A,,Overcast,0,2013-09-15 06:52:00
1:52 AM,57.9,55.0,90,29.86,10.0,Calm,Calm,-,N/A,,Clear,0,2013-09-15 07:52:00
2:52 AM,55.9,53.1,90,29.86,10.0,West,8.1,-,N/A,,Clear,280,2013-09-15 08:52:00
3:52 AM,54.0,51.1,90,29.87,10.0,South,3.5,-,N/A,,Clear,190,2013-09-15 09:52:00
4:52 AM,54.0,51.1,90,29.88,10.0,West,4.6,-,N/A,,Clear,270,2013-09-15 10:52:00
5:52 AM,54.0,50.0,86,29.90,10.0,West,4.6,-,N/A,,Clear,280,2013-09-15 11:52:00
6:25 AM,53.6,50.0,88,30.06,10.0,South,3.5,-,N/A,,Scattered Clouds,190,2013-09-15 12:25:00
6:43 AM,51.8,50.0,94,30.06,1.8,SSE,3.5,-,N/A,,Mostly Cloudy,160,2013-09-15 12:43:00
6:52 AM,51.1,50.0,96,29.92,1.5,Calm,Calm,-,N/A,,Mostly Cloudy,0,2013-09-15 12:52:00
6:55 AM,51.8,50.0,94,30.06,2.0,Calm,Calm,-,N/A,,Mostly Cloudy,0,2013-09-15 12:55:00
7:01 AM,51.8,48.2,88,30.06,3.0,WSW,4.6,-,N/A,,Scattered Clouds,240,2013-09-15 13:01:00
7:52 AM,53.1,51.1,93,29.94,10.0,WSW,6.9,-,N/A,,Clear,240,2013-09-15 13:52:00
8:52 AM,55.9,52.0,87,29.94,10.0,South,4.6,-,N/A,,Clear,190,2013-09-15 14:52:00
9:52 AM,63.0,52.0,67,29.94,10.0,Calm,Calm,-,N/A,,Clear,0,2013-09-15 15:52:00
10:52 AM,68.0,52.0,56,29.94,10.0,ENE,4.6,-,N/A,,Clear,70,2013-09-15 16:52:00
11:52 AM,73.0,50.0,44,29.92,10.0,Variable,4.6,-,N/A,,Clear,0,2013-09-15 17:52:00
12:52 PM,75.0,48.0,38,29.91,10.0,Calm,Calm,-,N/A,,Clear,0,2013-09-15 18:52:00
1:52 PM,77.0,45.0,32,29.89,10.0,South,8.1,-,N/A,,Clear,170,2013-09-15 19:52:00
2:52 PM,79.0,46.0,31,29.87,10.0,South,8.1,-,N/A,,Clear,170,2013-09-15 20:52:00
3:52 PM,80.1,44.1,28,29.86,10.0,Calm,Calm,-,N/A,,Clear,0,2013-09-15 21:52:00
4:52 PM,81.0,43.0,26,29.84,10.0,Variable,4.6,-,N/A,,Clear,0,2013-09-15 22:52:00
5:52 PM,80.1,45.0,29,29.84,10.0,SSW,10.4,-,N/A,,Clear,210,2013-09-15 23:52:00
6:52 PM,79.0,45.0,30,29.86,10.0,SSW,8.1,-,N/A,,Mostly Cloudy,200,2013-09-16 00:52:00
7:52 PM,73.0,48.9,42,29.88,10.0,South,9.2,-,N/A,,Clear,190,2013-09-16 01:52:00
8:52 PM,66.9,48.9,52,29.90,10.0,SSE,3.5,-,N/A,,Clear,160,2013-09-16 02:52:00
9:52 PM,68.0,48.9,50,29.89,10.0,SW,4.6,-,N/A,,Clear,230,2013-09-16 03:52:00
10:52 PM,64.9,51.1,61,29.89,10.0,South,3.5,-,N/A,,Clear,190,2013-09-16 04:52:00
11:52 PM,64.0,51.1,63,29.89,10.0,South,4.6,-,N/A,,Clear,180,2013-09-16 05:52:00